Regional Weather Roundup
Issued by NWS

Home | Current Version | Previous Version | Graphics & Text | Print | Product List | Glossary On
Versions: 1 2 3 4 5 6 7 8 9 10 11 12 13 14 15 16 17 18 19 20 21 22 23 24 25 26 27 28 29 30 31 32 33 34 35 36 37 38 39 40 41 42 43 44 45 46 47 48 49 50
000
ASUS45 KTFX 201719
RWRMT
MONTANA HOURLY WEATHER ROUNDUP
NATIONAL WEATHER SERVICE GREAT FALLS MT
1119 AM MDT WED AUG 20 2014

NOTE: "FAIR" INDICATES FEW OR NO CLOUDS BELOW 12000 FEET WITH NO
SIGNIFICANT WEATHER AND/OR OBSTRUCTIONS TO VISIBILITY.

* THESE STATIONS ARE NOT UNDER NWS QUALITY CONTROL. THEY DO NOT
   REPORT WEATHER SUCH AS PRECIPITATION OR FOG.

MTZ001>007-043-201800-
WEST OF THE DIVIDE
CITY           SKY/WX    TMP DP  RH WIND       PRES   REMARKS
KALISPELL      CLOUDY    64  55  73 VRB5      29.87R
MISSOULA       CLOUDY    63  57  81 CALM      29.92F
BUTTE          SUNNY     66  43  43 N3        29.97F
MULLAN PASS    CLOUDY    52  48  86 CALM      29.98S
* ESSEX        N/A       58  54  87 N3         N/A
* LINCOLN      N/A       63  48  58 W3G8       N/A
* LOOKOUT PASS N/A       54  54 100 SE3        N/A
* POLSON       N/A       64  56  75 SW3        N/A
* RONAN APT    CLOUDY    63  57  81 S8         N/A
* SEELEY LAKE  N/A       60  52  75 SE3        N/A
* THOMP F APT  CLOUDY    59  50  72 SW2        N/A
* YAAK HILL    N/A       66  52  61 S1         N/A
$$

MTZ008-052>055-201800-
SOUTHWEST MONTANA
CITY           SKY/WX    TMP DP  RH WIND       PRES   REMARKS
BOZEMAN        PTCLDY    68  48  49 CALM      29.93S
DILLON         SUNNY     68  46  45 W6        29.95F
W YELLOWSTONE  CLOUDY    50  46  86 CALM      30.10R
* THREE FORKS  SUNNY     72  57  59 N/A        N/A
* BOULDER HILL N/A       67  41  39 SW2        N/A
* RAYNOLDS PAS N/A       54  37  53 S10        N/A
* WHITEHALL    N/A       71  51  49 NW3        N/A
* WISE RIVER   N/A       59  46  62 W4         N/A
$$

MTZ009>010-012-014-046-048-049-054-201800-
EAST SLOPES AND CENTRAL MONTANA
CITY           SKY/WX    TMP DP  RH WIND       PRES   REMARKS
CUT BANK       PTSUNNY   68  52  57 N3        29.86R
GREAT FALLS    PTCLDY    73  46  38 W7        29.84S
HELENA         PTCLDY    75  45  34 NE3       29.87F
MALMSTROM AFB  PTCLDY    72  46  40 W6        29.86S
* CONRAD       PTSUNNY   72  55  55 N/A        N/A
* DEARBORN     N/A       74  43  33 SW5        N/A
* EAST GLACIER N/A       65  47  52 W6G12      N/A
* MONARCH      N/A       66  42  42 SW6        N/A
* PENDROY      N/A       71  46  41 NW11G16    N/A
* ROGERS PASS  N/A       63  42  46 SE8G14     N/A
* SAINT MARY   N/A       62  49  63 W5G13      N/A
* SWEET GRASS  N/A       64  55  73 NE8        N/A
* WHITE SULPH  N/A       69  46  44 W2G7       N/A
$$

MTZ011-013-016-021-035-040-045-047-050-051-201800-
NORTH CENTRAL MONTANA
CITY           SKY/WX    TMP DP  RH WIND       PRES   REMARKS
HAVRE          PTSUNNY   70  55  59 VRB5      29.82S
LEWISTOWN      CLOUDY    72  45  38 W6        29.88R
* FORT BENTON  PTSUNNY   70  54  57 NE6       29.85R
* CHESTER      N/A       69  53  57 E4G9       N/A
* DENTON       N/A       73  49  43 NW10       N/A
* GEYSER       N/A       71  46  41 NW8        N/A
* JUDITH GAP   N/A       68  49  51 N10        N/A
* LOMA         N/A       67  54  63 NE7G12     N/A
$$

MTZ017>020-022>027-061-062-201800-
NORTHEAST MONTANA
CITY           SKY/WX    TMP DP  RH WIND       PRES   REMARKS
GLASGOW        CLOUDY    68  61  78 NW15      29.73R
GLENDIVE       CLOUDY    70  55  59 W13       29.71R
JORDAN         CLOUDY    70  57  64 NW13      29.78R
SIDNEY         CLOUDY    73  57  57 SW7       29.70R
WOLF POINT     CLOUDY    75  54  48 W7        29.69R
* BEAVER HILL  N/A       70  56  61 N7         N/A
* CIRCLE       N/A       70  61  73 W11        N/A
* LINDSAY DVD  N/A       67  53  61 W8         N/A
* SACO         N/A       66  58  76 NW11       N/A
$$

MTZ028>042-056>058-201800-
SOUTHCENTRAL AND SOUTHEAST MONTANA
CITY           SKY/WX    TMP DP  RH WIND       PRES   REMARKS
BAKER          CLOUDY    75  61  62 CALM      29.74R
BILLINGS       CLOUDY    73  46  38 NW10      29.87R
LIVINGSTON     CLOUDY    70  43  38 SW21G26   29.91S
MILES CITY     LGT RAIN  70  59  68 N9        29.74S
* LAUREL APT   CLOUDY    72  48  43 N/A        N/A
* ROUNDUP APT  CLOUDY    70  50  49 N/A        N/A
* ALZADA       N/A       81  52  37 SW6G15     N/A
* HYSHAM       N/A       73  45  37 W4G15      N/A
* LAME DEER    N/A      N/A N/A N/A N/A        N/A
* REED POINT   N/A       76  50  40 W6         N/A
* ROSCOE HILL  N/A       68  41  38 E7G12      N/A
$$

REGIONAL REPORTS...DAKOTAS
CITY           SKY/WX    TMP DP  RH WIND       PRES   REMARKS
WILLISTON      CLOUDY    73  64  74 CALM      29.67R
DICKINSON      CLOUDY    73  63  71 W7        29.70R
BEACH          N/A       73  64  74 CALM      29.74R
CROSBY         SUNNY     75  66  74 E7        29.68R
TIOGA          SUNNY     66  66 100 E12       29.72S
WATFORD CITY   SUNNY     75  63  66 SE13G18   29.68R
BISMARCK       CLOUDY    75  66  74 SE10      29.73R
GRAND FORKS    PTSUNNY   81  66  60 S13       29.77S HI  83
FARGO          PTSUNNY   81  66  60 SE10      29.78F HI  83
BUFFALO SD     CLOUDY    73  63  71 S7        29.65F
RAPID CITY     PTSUNNY   79  63  58 SE6       29.75S
$$

REGIONAL REPORTS...WYOMING/IDAHO/WASHINGTON
CITY           SKY/WX    TMP DP  RH WIND       PRES   REMARKS
GILLETTE       SUNNY     79  46  31 NW17G23   29.83R
SHERIDAN       LGT RAIN  70  50  49 W7        29.85R
CODY           PTSUNNY   70  46  42 NE14      29.94R
YELLOWSTONE LA PTSUNNY   57  46  67 CALM      30.15S
SALMON         PTCLDY    63  50  63 NW3       29.92F
MULLAN PASS    CLOUDY    52  48  86 CALM      29.98S
SAND POINT     PTCLDY    66  55  68 W3        29.84R
SPOKANE        PTSUNNY   70  54  57 SW14      29.83R
$$

REGIONAL REPORTS...ALBERTA
CITY           SKY/WX    TMP DP  RH WIND       PRES   REMARKS
CALGARY        CLOUDY    55  46  72 NE14      29.91S
LETHBRIDGE     CLOUDY    63  57  81 NW13      29.86R
MEDICINE HAT   PTSUNNY   68  59  73 NW6       29.81R
EDMONTON       PTSUNNY   57  52  83 NW9       29.90R
WATERTON GATE  N/A       59  52  78 E7         N/A
CARDSTON       N/A       55  55 100 N3         N/A
MILK RIVER     N/A       66  54  65 N6         N/A
$$

REGIONAL REPORTS...SASKATCHEWAN
CITY           SKY/WX    TMP DP  RH WIND       PRES   REMARKS
SWIFT CURRENT  SUNNY     70  55  59 NW16      29.74S
MOOSE JAW      PTSUNNY   70  61  73 NW9G17    29.69R
REGINA         CLOUDY    68  64  87 W5        29.67R
VAL MARIE      N/A       70  55  59 NW13       N/A
ASSINIBOIA     N/A       64  59  84 NW12       N/A
CORONACH       N/A       68  57  68 NW13       N/A

$$




USA.gov is the U.S. government's official web portal to all federal, state and local government web resources and services.